FW0639 Weather Reports


Display with metric or nautical units.
time (UTC)temp
F
wind
direction
speed
MPH
gust
MPH
rain 1hr
in
rain 24hr
in
rain mn
in
humidity
%
barometer
mb
20260904211527 80 195 1.0 9.0 0.00 0.00 0.00 30 1003.6
20260904210546 81 178 2.0 8.0 0.00 0.00 0.00 29 1003.5
20260904205543 81 344 1.0 8.0 0.00 0.00 0.00 30 1003.4
20260904204602 81 340 1.0 8.0 0.00 0.00 0.00 30 1003.3
20260904203548 81 289 1.0 4.0 0.00 0.00 0.00 31 1003.2
20260904202544 81 288 1.0 6.0 0.00 0.00 0.00 29 1003.3
20260904201513 82 279 1.0 6.0 0.00 0.00 0.00 29 1003.4
20260904195313 83 328 1.0 4.0 0.00 0.00 0.00 27 1003.2
20260904194311 82 342 0.0 3.0 0.00 0.00 0.00 29 1003.2
20260904191016 81 161 1.0 7.0 0.00 0.00 0.00 30 1003.3
20260904184917 82 143 2.0 11.0 0.00 0.00 0.00 28 1003.1
20260904183910 83 9 2.0 20.0 0.00 0.00 0.00 26 1003.0
20260904182842 85 124 5.0 20.0 0.00 0.00 0.00 20 1002.9
20260904181902 86 161 5.0 17.0 0.00 0.00 0.00 20 1002.7
20260904180841 86 213 5.0 13.0 0.00 0.00 0.00 20 1002.7
20260904175843 87 173 5.0 13.0 0.00 0.00 0.00 18 1002.7
20260904174828 86 129 4.0 12.0 0.00 0.00 0.00 19 1002.5
20260904173842 86 140 6.0 15.0 0.00 0.00 0.00 17 1002.4
20260904172838 85 123 4.0 15.0 0.00 0.00 0.00 19 1002.2
20260904171857 83 78 1.0 9.0 0.00 0.00 0.00 23 1002.1
20260904165805 76 52 0.0 4.0 0.00 0.00 0.00 36 1002.1
20260904164749 74 52 0.0 0.0 0.00 0.00 0.00 44 1002.1
20260904163733 74 52 0.0 0.0 0.00 0.00 0.00 50 1002.0
20260904162720 73 52 0.0 1.0 0.00 0.00 0.00 47 1002.0
20260904161709 71 51 0.0 0.0 0.00 0.00 0.00 47 1002.1
20260904155617 69 51 0.0 0.0 0.00 0.00 0.00 50 1002.1
20260904153457 69 52 0.0 0.0 0.00 0.00 0.00 47 1002.4
20260904152459 70 52 0.0 2.0 0.00 0.00 0.00 48 1002.4
20260904151448 70 52 1.0 7.0 0.00 0.00 0.00 46 1002.4
20260904150444 69 51 0.0 3.0 0.00 0.00 0.00 45 1002.4
20260904145421 69 346 1.0 7.0 0.00 0.00 0.00 44 1002.3
20260904144428 69 334 2.0 6.0 0.00 0.00 0.00 44 1002.4
20260904143424 67 333 1.0 6.0 0.00 0.00 0.00 44 1002.3
20260904141251 65 333 1.0 7.0 0.00 0.00 0.00 48 1002.2
20260904135200 65 333 0.0 0.0 0.00 0.00 0.00 50 1002.3
20260904134145 65 333 0.0 0.0 0.00 0.00 0.00 46 1002.4
20260904133208 65 333 0.0 2.0 0.00 0.00 0.00 45 1002.3
20260904132145 65 333 0.0 2.0 0.00 0.00 0.00 45 1002.3
20260904131138 65 333 0.0 6.0 0.00 0.00 0.00 44 1002.5
20260904130119 65 333 1.0 6.0 0.00 0.00 0.00 42 1002.4
20260904123958 65 335 0.0 7.0 0.00 0.00 0.00 39 1002.4
20260904122949 65 335 1.0 11.0 0.00 0.00 0.00 39 1002.5
20260904122013 65 335 1.0 11.0 0.00 0.00 0.00 40 1002.7
20260904121016 65 335 1.0 10.0 0.00 0.00 0.00 39 1002.8
20260904114854 65 334 3.0 12.0 0.00 0.00 0.00 38 1003.2
20260904113850 64 335 2.0 12.0 0.00 0.00 0.00 39 1003.2
20260904112902 65 336 0.0 4.0 0.00 0.00 0.00 39 1003.4
20260904111836 65 336 0.0 4.0 0.00 0.00 0.00 37 1003.5
20260904110835 65 336 1.0 4.0 0.00 0.00 0.00 37 1003.5
20260904104727 65 336 2.0 4.0 0.00 0.00 0.00 37 1003.9
20260904103704 65 337 2.0 4.0 0.00 0.00 0.00 38 1004.0
20260904102642 59 341 0.0 3.0 0.00 0.00 0.00 46 1004.0
20260904101608 58 346 0.0 0.0 0.00 0.00 0.00 52 1004.2
20260904100539 59 341 0.0 3.0 0.00 0.00 0.00 50 1004.2
20260904095517 60 340 0.0 0.0 0.00 0.00 0.00 49 1004.1
20260904093352 60 341 0.0 1.0 0.00 0.00 0.00 46 1004.1
20260904092403 58 51 0.0 0.0 0.00 0.00 0.00 51 1004.2
20260904091336 59 74 0.0 0.0 0.00 0.00 0.00 51 1004.3
20260904090325 60 342 0.0 0.0 0.00 0.00 0.00 47 1004.5
20260904085343 62 340 0.0 0.0 0.00 0.00 0.00 45 1004.5
20260904084342 62 339 0.0 0.0 0.00 0.00 0.00 44 1004.6
20260904083331 59 55 0.0 0.0 0.00 0.00 0.00 48 1004.5
20260904082335 59 72 0.0 0.0 0.00 0.00 0.00 54 1004.7
20260904081353 60 341 0.0 0.0 0.00 0.00 0.00 52 1004.6
20260904074044 60 336 1.0 7.0 0.00 0.00 0.00 48 1004.8
20260904073049 57 338 0.0 0.0 0.00 0.00 0.00 54 1004.8
20260904072020 56 118 0.0 4.0 0.00 0.00 0.00 61 1004.9
20260904070954 56 122 0.0 2.0 0.00 0.00 0.00 64 1005.0
20260904070004 56 121 0.0 0.0 0.00 0.00 0.00 64 1005.3
20260904065025 56 121 0.0 0.0 0.00 0.00 0.00 64 1005.4
20260904063955 56 124 0.0 2.0 0.00 0.00 0.00 62 1005.6
20260904063005 56 115 0.0 0.0 0.00 0.00 0.00 63 1005.4
20260904061954 56 99 0.0 0.0 0.00 0.00 0.00 63 1005.5
20260904061018 56 101 0.0 0.0 0.00 0.00 0.00 64 1005.5
20260904060012 56 110 0.0 1.0 0.00 0.00 0.00 62 1005.5
20260904055003 56 105 0.0 0.0 0.00 0.00 0.00 63 1005.6
20260904053933 57 109 0.0 0.0 0.00 0.00 0.00 63 1005.8
20260904051812 57 108 0.0 0.0 0.00 0.00 0.00 63 1006.0
20260904045733 57 110 0.0 0.0 0.00 0.00 0.00 62 1006.0
20260904044718 57 111 0.0 0.0 0.00 0.00 0.00 61 1005.9
20260904043738 57 109 0.0 0.0 0.00 0.00 0.00 61 1006.1
20260904041528 58 109 0.0 0.0 0.00 0.00 0.00 61 1006.0
20260904040512 59 118 0.0 0.0 0.00 0.00 0.00 59 1006.0
20260904035525 59 119 0.0 0.0 0.00 0.00 0.00 59 1006.1
20260904034534 59 117 0.0 0.0 0.00 0.00 0.00 59 1006.1
20260904033554 60 118 0.0 0.0 0.00 0.00 0.00 59 1006.1
20260904032613 60 116 0.0 0.0 0.00 0.00 0.00 57 1006.2
20260904031624 61 115 0.0 0.0 0.00 0.00 0.00 57 1006.2
20260904030551 61 342 0.0 0.0 0.00 0.00 0.00 57 1006.1
20260904023316 63 342 0.0 0.0 0.00 0.00 0.00 54 1005.5
20260904021137 65 340 0.0 0.0 0.00 0.00 0.00 54 1005.1
20260904015018 68 339 0.0 0.0 0.00 0.00 0.00 50 1005.0
20260904013958 69 338 0.0 0.0 0.00 0.00 0.00 48 1005.0
20260904012953 70 337 0.0 0.0 0.00 0.00 0.00 46 1005.0
20260904011947 71 336 0.0 0.0 0.00 0.00 0.00 44 1004.8
20260904011002 72 338 0.0 0.0 0.00 0.00 0.00 41 1004.8
20260904010005 73 337 0.0 0.0 0.00 0.00 0.00 38 1004.8
20260904005008 73 336 0.0 0.0 0.00 0.00 0.00 37 1004.7
20260904003959 74 337 0.0 0.0 0.00 0.00 0.00 34 1004.7
20260904003023 75 338 0.0 0.0 0.00 0.00 0.00 34 1004.7
20260904002022 76 337 0.0 0.0 0.00 0.00 0.00 29 1004.8
20260904001028 76 338 0.0 1.0 0.00 0.00 0.00 27 1004.8
20260903234810 78 347 1.0 8.0 0.00 0.00 0.00 25 1004.6
20260903232704 78 65 1.0 8.0 0.00 0.00 0.00 25 1004.3
20260903231703 78 2 2.0 8.0 0.00 0.00 0.00 25 1004.3
20260903230704 78 24 2.0 10.0 0.00 0.00 0.00 24 1004.2
20260903225706 78 349 4.0 10.0 0.00 0.00 0.00 24 1004.3
20260903224726 78 353 2.0 7.0 0.00 0.00 0.00 24 1004.3
20260903223715 80 155 1.0 7.0 0.00 0.00 0.00 23 1004.2
20260903222648 79 150 0.0 5.0 0.00 0.00 0.00 29 1004.0
20260903221709 78 38 0.0 18.0 0.00 0.00 0.00 29 1004.1
20260903220643 78 354 2.0 18.0 0.00 0.00 0.00 26 1004.0
20260903215634 77 339 0.0 4.0 0.00 0.00 0.00 27 1003.9
20260903214636 78 339 1.0 6.0 0.00 0.00 0.00 30 1003.9